Simultaneous Nadir Overpasses (SNOs) Predictions

Prediction of SNOs between GOES-16 and NPP Satellite Orbit:

Table of predicted SNOs for the next 14.0 days since TLE Epoch: 11/12/2022
Index Date Time (GOES-16) GOES-16 Lat,Lon NPP Lat,Lon Distance(km) Time Diff (sec)
1 11/12/2022 18:27:30 -0.02, -75.20 -0.12, -75.73 59.54 80
2 11/13/2022 18:11:25 -0.02, -75.21 0.88, -71.19 457.91 80
3 11/15/2022 06:33:11 0.02, -75.21 0.32, -76.45 141.84 80
4 11/16/2022 06:11:47 0.02, -75.21 -0.75, -71.92 375.90 80
5 11/17/2022 18:33:42 -0.01, -75.24 -0.43, -77.22 225.53 80
6 11/18/2022 18:17:37 -0.01, -75.25 0.58, -72.68 292.82 80
7 11/20/2022 06:39:23 0.01, -75.26 0.61, -77.94 305.29 80
8 11/21/2022 06:17:57 0.01, -75.28 -0.41, -73.41 213.19 80
9 11/22/2022 18:39:53 -0.01, -75.30 -0.76, -78.70 387.55 80
10 11/23/2022 18:23:47 -0.01, -75.32 0.26, -74.17 131.12 80
11 11/25/2022 06:45:33 0.01, -75.34 0.93, -79.43 466.46 80
